Lid_Strength_Index
14 13 14 15 15 15 15 15 16 15 15 15 15 15 16 16 16 17 17 17 18 18 18 19 18 18 18 18 17 17 17 16 20 22 20 20 21 20 21 21 21 22 22
15 15 15 15 16 17 17 17 16 17 16 16 16 17 17 17 17 17 18 18 19 19 19 20 20 19 19 19 19 19 19 18 19 22 21 21 21 21 22 22 22 21 22
16 16 16 16 17 17 17 17 17 17 17 16 17 17 17 17 17 17 18 18 18 19 20 21 20 20 21 20 19 21 20 20 21 22 23 22 22 22 24 22 23 23 21
16 17 17 17 17 17 17 17 17 17 17 17 16 17 17 16 17 17 17 18 18 18 18 19 20 21 21 21 21 21 20 21 22 22 22 23 23 23 23 24 24 23 21
17 17 17 17 16 16 17 16 16 16 16 16 16 16 16 16 17 17 19 19 19 20 20 19 19 19 18 19 21 21 21 22 22 23 23 23 23 23 23 22 22 21 21
16 17 16 17 17 17 17 17 17 17 17 17 17 16 16 16 15 16 18 20 20 20 21 21 21 21 19 19 18 18 19 22 22 22 23 23 22 22 21 22 22 23 25
17 17 17 18 17 18 17 18 18 19 18 18 19 19 18 17 16 17 18 20 20 20 20 20 21 21 21 21 20 20 19 17 18 20 21 21 22 21 21 22 22 23 23
19 19 19 19 19 18 18 19 19 19 19 19 19 19 19 18 18 18 19 21 21 21 21 21 21 20 19 19 19 20 20 20 20 19 20 20 21 20 20 21 22 24 24
20 20 20 19 20 19 20 20 19 19 19 20 19 20 20 19 18 18 20 21 21 21 20 19 19 19 16 16 19 20 20 20 18 18 18 18 17 18 19 23 30 31 31
19 19 20 20 19 20 20 20 19 19 19 18 18 18 18 18 16 16 17 18 19 20 19 19 17 17 17 16 19 20 22 22 22 22 22 21 21 22 20 22 26 32 32
19 18 19 18 19 19 19 19 19 19 19 19 19 19 19 17 16 15 16 18 19 19 20 20 20 18 17 18 18 20 21 20 23 26 25 25 24 24 24 23 24 26 30
20 20 21 22 19 20 23 22 22 22 22 22 23 21 20 19 17 16 16 17 18 20 20 21 21 18 17 17 19 18 18 20 27 28 28 26 25 25 24 24 24 24 23
24 25 25 23 21 21 24 23 23 23 23 23 21 23 22 20 20 18 18 18 18 19 19 19 18 18 18 20 19 19 22 26 28 30 27 25 25 25 26 27 25 25 25
27 25 24 24 23 23 21 21 23 24 24 22 23 24 24 23 22 22 21 21 18 19 19 23 20 19 19 20 24 23 24 26 27 27 26 25 25 26 25 25 25 25 26
25 24 24 24 25 24 22 23 22 22 21 25 24 24 25 25 22 19 20 22 23 20 27 27 27 27 27 26 26 26 26 27 26 26 27 26 25 25 25 24 25 26 28
24 24 24 24 25 24 24 25 18 18 17 17 17 20 22 18 17 17 17 17 16 16 28 29 28 27 26 26 26 25 26 25 24 24 25 25 25 25 26 25 26 27 28
25 24 24 24 24 24 25 25 25 23 17 17 17 17 16 18 17 17 17 16 16 16 22 26 25 24 24 24 24 25 24 25 24 25 25 25 26 26 27 27 27 27 28
26 25 24 24 24 24 24 24 25 25 24 23 19 17 16 15 15 15 15 16 19 19 22 22 23 22 23 24 24 24 24 24 26 24 25 25 25 26 26 27 27 28 28
25 24 24 25 24 23 24 23 23 24 23 22 27 20 19 15 15 15 15 18 20 21 21 21 21 21 22 23 23 23 23 24 24 25 25 25 25 26 27 27 28 28 28
24 24 24 23 22 24 24 23 23 23 22 23 23 22 28 29 25 22 21 21 21 21 20 21 20 19 20 22 22 23 24 24 24 24 25 25 25 26 27 27 27 27 27
24 24 23 23 23 22 22 23 23 23 22 22 22 21 20 24 23 23 22 22 22 21 21 21 20 20 20 21 22 22 23 23 23 24 24 24 24 25 25 26 26 26 26
23 24 24 24 24 23 23 23 23 23 23 23 22 22 18 20 20 21 21 21 20 20 20 20 21 21 20 20 21 21 22 23 23 24 24 23 24 24 25 26 26 26 26
23 24 24 24 24 24 24 23 23 23 22 22 22 22 22 21 21 21 20 20 19 20 20 20 21 20 19 19 19 20 21 22 22 22 22 23 24 25 25 26 26 26 26
24 23 23 23 23 23 23 23 23 23 23 23 22 22 22 21 21 21 20 20 20 20 20 20 20 20 20 20 20 21 21 22 22 22 22 23 24 25 26 26 26 27 26
25 24 23 22 22 22 22 22 23 23 23 23 23 23 22 21 21 21 20 20 20 21 21 21 21 21 21 21 20 20 21 21 21 21 22 26 26 26 26 26 26 26 25
26 27 25 24 23 22 22 22 22 22 22 22 22 22 21 21 21 21 20 20 21 22 22 21 21 21 20 20 20 21 21 20 21 22 22 24 25 26 26 26 26 26 25